Location: Casteau
(50.5142°N, 4.0161°E)
Time: 22:25:40
(UTC+00:00)

A-11 Canister half - All Passes

Search period start: 28 July 2021 00:00
Search period end: 07 August 2021 00:00
Orbit: 1513 x 1687 km, 47.2° (Epoch: 28 July)

Date Brightness Start Highest point End Pass type
(mag) Time Alt. Az. Time Alt. Az. Time Alt. Az.
28 Jul - 01:00:21 10° W 01:08:09 26° SW 01:15:53 10° S visible
28 Jul - 16:21:17 10° S 16:28:57 27° SE 16:36:47 10° E daylight
28 Jul - 18:22:51 10° SW 18:32:27 58° SSE 18:42:20 10° E daylight
28 Jul - 20:27:02 10° W 20:37:04 75° S 20:47:15 10° E visible
28 Jul - 22:31:51 10° W 22:41:42 58° SSW 22:51:34 10° SE visible
29 Jul - 00:37:18 10° W 00:45:18 27° SW 00:53:16 10° S visible
29 Jul - 15:58:42 10° S 16:06:07 25° SE 16:13:43 10° E daylight
29 Jul - 18:00:01 10° SW 18:09:33 56° SSE 18:19:22 10° E daylight
29 Jul - 20:04:07 10° W 20:14:07 75° S 20:24:18 10° E visible
29 Jul - 22:08:54 10° W 22:18:47 60° SSW 22:28:41 10° SE visible
30 Jul - 00:14:15 10° W 00:22:28 29° SW 00:30:37 10° S visible
30 Jul - 15:36:09 10° S 15:43:19 24° SE 15:50:38 10° E daylight
30 Jul - 17:37:10 10° SW 17:46:39 55° SSE 17:56:24 10° E daylight
30 Jul - 19:41:12 10° W 19:51:10 75° S 20:01:20 10° E daylight
30 Jul - 21:45:58 10° W 21:55:52 62° SSW 22:05:49 10° SE visible
30 Jul - 23:51:14 10° W 23:59:37 31° SW 00:07:57 10° SSE visible
31 Jul - 15:13:37 10° S 15:20:30 22° SE 15:27:31 10° E daylight
31 Jul - 17:14:21 10° SW 17:23:45 53° SSE 17:33:25 10° E daylight
31 Jul - 19:18:17 10° WSW 19:28:13 75° S 19:38:23 10° E daylight
31 Jul - 21:23:01 10° W 21:32:56 63° SSW 21:42:55 10° ESE visible
31 Jul - 23:28:13 10° W 23:36:46 32° SW 23:45:17 10° SSE visible
01 Aug - 14:51:07 10° S 14:57:41 21° SE 15:04:23 10° E daylight
01 Aug - 16:51:33 10° SW 17:00:51 51° SSE 17:10:28 10° E daylight
01 Aug - 18:55:22 10° WSW 19:05:17 74° S 19:15:26 10° E daylight
01 Aug - 21:00:06 10° W 21:10:00 65° SSW 21:20:01 10° ESE visible
01 Aug - 23:05:12 10° W 23:13:53 34° SW 23:22:34 10° SSE visible
02 Aug - 14:28:40 10° S 14:34:53 19° SE 14:41:14 10° E daylight
02 Aug - 16:28:45 10° SW 16:37:58 49° SSE 16:47:30 10° E daylight
02 Aug - 18:32:27 10° WSW 18:42:20 74° S 18:52:28 10° E daylight
02 Aug - 20:37:09 10° W 20:47:04 66° SSW 20:57:07 10° ESE visible
02 Aug - 22:42:13 10° W 22:51:02 36° SW 22:59:52 10° SSE visible
03 Aug - 14:06:15 10° SSE 14:12:05 18° SE 14:18:02 10° E daylight
03 Aug - 16:05:58 10° SW 16:15:05 47° SSE 16:24:31 10° E daylight
03 Aug - 18:09:33 10° WSW 18:19:23 73° S 18:29:30 10° E daylight
03 Aug - 20:14:14 10° W 20:24:08 67° SSW 20:34:12 10° ESE visible
03 Aug - 22:19:14 10° W 22:28:09 37° SW 22:37:08 10° SSE visible
04 Aug - 00:28:20 10° WSW 00:30:47 11° WSW 00:33:14 10° SW visible
04 Aug - 13:43:55 10° SSE 13:49:18 17° SE 13:54:48 10° E daylight
04 Aug - 15:43:12 10° SW 15:52:12 45° SSE 16:01:32 10° E daylight
04 Aug - 17:46:39 10° WSW 17:56:27 72° S 18:06:33 10° E daylight
04 Aug - 19:51:19 10° W 20:01:12 68° SSW 20:11:17 10° ESE visible
04 Aug - 21:56:16 10° W 22:05:17 39° SW 22:14:22 10° SSE visible
05 Aug - 00:04:30 10° WSW 00:08:00 12° WSW 00:11:31 10° SW visible
05 Aug - 13:21:37 10° SSE 13:26:31 15° SE 13:31:29 10° E daylight
05 Aug - 15:20:26 10° SSW 15:29:20 44° SE 15:38:33 10° E daylight
05 Aug - 17:23:46 10° WSW 17:33:31 71° S 17:43:35 10° E daylight
05 Aug - 19:28:23 10° W 19:38:16 69° SSW 19:48:21 10° ESE daylight
05 Aug - 21:33:17 10° W 21:42:24 41° SW 21:51:36 10° SSE visible
05 Aug - 23:40:57 10° W 23:45:13 13° WSW 23:49:29 10° SSW visible
06 Aug - 12:59:26 10° SSE 13:03:44 14° ESE 13:08:07 10° E daylight
06 Aug - 14:57:41 10° SSW 15:06:28 42° SE 15:15:34 10° E daylight
06 Aug - 17:00:53 10° WSW 17:10:35 70° SSE 17:20:37 10° E daylight
06 Aug - 19:05:28 10° W 19:15:20 70° SSW 19:25:25 10° ESE daylight
06 Aug - 21:10:20 10° W 21:19:32 42° SW 21:28:49 10° SSE visible
06 Aug - 23:17:32 10° W 23:22:25 15° SW 23:27:18 10° SSW visible
